User: anonymous   Login
Location: Étouvelles
(49.5207°N, 3.5808°E)
Time: 06:16:37
(UTC+00:00)
Language:

Cosmos 540 Rocket - Orbit

View from above orbital plane
View from above orbital plane
View from above satellite
View from above satellite

Ground track
Ground track

The orbit data is extracted from the following two-line orbital elements,

1 06324U 72104B   23156.62657266  .00000282  00000-0  90199-4 0  9990
2 06324  74.0786  26.1206 0009392 318.7193  41.3253 14.43935597649783
Epoch (UTC): 05 June 2023 15:02:15
Eccentricity: 0.0009392
inclination: 74.0786°
perigee height: 739 km
apogee height: 752 km
right ascension of ascending node: 26.1206°
argument of perigee: 318.7193°
revolutions per day: 14.43935597
mean anomaly at epoch: 41.3253°
orbit number at epoch: 64978

The dashed part of the orbit path shows where the satellite is in the earth's shadow,  

DLR